Regional Weather Roundup
Issued by NWS

Home | Current Version | Previous Version | Text Only | Print | Product List | Glossary Off
Versions: 1 2 3 4 5 6 7 8 9 10 11 12 13 14 15 16 17 18 19 20 21 22 23 24 25 26 27 28

000
ASUS45 KCYS 301910
RWRWY

WYOMING REGIONAL WEATHER ROUNDUP
NATIONAL WEATHER SERVICE CHEYENNE WY
100 PM MDT THU OCT 30 2014

NOTE:  "FAIR" INDICATES FEW OR NO CLOUDS BELOW 12,000 FEET
WITH NO SIGNIFICANT WEATHER AND/OR OBSTRUCTIONS TO VISIBILITY.

WYZ001-302000-
YELLOWSTONE NATIONAL PARK

CITY           SKY/WX    TMP DP  RH WIND       PRES   REMARKS
LK YELLOWSTONE   N/A     45  28  51 CALM      30.39F
W YELLOWSTONE  NOT AVBL

$$
WYZ002>013-054>058-071-098>099-302000-
NORTHERN WYOMING

CITY           SKY/WX    TMP DP  RH WIND       PRES   REMARKS
JACKSON        SUNNY     50  30  46 S6        30.36F
CODY           MOSUNNY   54  30  40 CALM      30.31
GREYBULL       SUNNY     54  25  32 SW5       30.31F
WORLAND        SUNNY     56  26  31 N3        30.30F
SHERIDAN       SUNNY     58  29  33 VRB3      30.32F
BUFFALO        SUNNY     55  25  31 S7        30.35F
GILLETTE       SUNNY     57  31  37 W8        30.33F
HULETT         FAIR      55  32  41 NW5       30.34
NEWCASTLE      FAIR      55  30  38 NW10G21   30.33F

$$
WYZ014>020-022>026-101>103-302000-
CENTRAL WYOMING

CITY           SKY/WX    TMP DP  RH WIND       PRES   REMARKS
BIG PINEY      SUNNY     50  27  40 E5        30.40S
PINEDALE       CLEAR     52  25  35 CALM      30.40
DUBOIS         FAIR      55  21  26 N3        30.33F
LANDER         SUNNY     53  27  36 CALM      30.32F
RIVERTON       MOSUNNY   51  27  39 CALM      30.34F
CASPER         SUNNY     54  24  31 VRB3      30.34F
DOUGLAS        SUNNY     57  27  31 NW6       30.35F

$$
WYZ021-027>030-104>119-302000-
SOUTHERN WYOMING

CITY           SKY/WX    TMP DP  RH WIND       PRES   REMARKS
EVANSTON       MOSUNNY   62  22  21 NE5       30.35F
KEMMERER       CLEAR     55  27  33 SE5       30.38S
FORT BRIDGER   FAIR      56  29  36 NE7       30.39F
ROCK SPRINGS   SUNNY     54  26  34 VRB5      30.37F
DIXON          FAIR      58  26  29 NW3       30.40F
RAWLINS        SUNNY     55  26  32 W9        30.37F
SARATOGA       FAIR      55  27  33 NW7       30.38F
LARAMIE        SUNNY     51  26  37 N7        30.37F
CHEYENNE       SUNNY     57  25  29 NW8G21    30.35F
TORRINGTON     SUNNY     61  28  28 W8        30.32F
PINE BLUFFS    FAIR      55  28  35 N9        30.35F

$$



USA.gov is the U.S. government's official web portal to all federal, state and local government web resources and services.